Location: ??
(35.5052°N, 139.7262°E)
Time: 01:23:30
(UTC+00:00)

CZ-4C R/B - Visible Passes

Search period start: 23 October 2021 00:00
Search period end: 02 November 2021 00:00
Orbit: 600 x 1402 km, 63.4° (Epoch: 22 October)

Date Brightness Start Highest point End Pass type
(mag) Time Alt. Az. Time Alt. Az. Time Alt. Az.
23 Oct 5.3 17:19:08 10° NNE 17:21:49 12° NE 17:24:38 10° NE visible
23 Oct 4.0 19:04:55 10° NNW 19:12:08 47° NE 19:20:18 10° SE visible
24 Oct 4.9 17:50:47 10° N 17:56:20 22° NE 18:02:27 10° E visible
24 Oct 3.2 19:38:06 10° NNW 19:45:49 87° ENE 19:54:31 10° SSE visible
25 Oct 3.7 09:13:20 10° SSE 09:14:07 13° SE 09:14:07 13° SE visible
25 Oct 5.4 16:39:04 10° NNE 16:39:51 10° NNE 16:40:38 10° NE visible
25 Oct 4.1 18:23:53 12° NNW 18:30:25 40° NE 18:38:17 10° ESE visible
25 Oct 3.4 20:11:47 10° NW 20:19:15 49° WSW 20:27:29 10° S visible
26 Oct 2.5 09:44:54 10° SSW 09:47:53 39° S 09:47:53 39° S visible
26 Oct 5.0 17:11:58 16° NNE 17:14:29 19° NE 17:19:56 10° E visible
26 Oct 3.2 18:57:12 13° NNW 19:04:10 75° ENE 19:12:49 10° SE visible
27 Oct 3.5 08:32:47 10° SE 08:35:03 14° ESE 08:36:22 12° E visible
27 Oct 2.8 10:18:08 10° SW 10:21:38 44° W 10:21:38 44° W visible
27 Oct 4.3 17:45:27 25° N 17:48:40 34° NE 17:56:12 10° ESE visible
27 Oct 3.2 19:30:43 13° NW 19:37:39 59° WSW 19:46:07 10° SSE visible
28 Oct 2.2 09:03:35 10° S 09:07:49 41° ESE 09:10:01 26° ENE visible
28 Oct 4.2 10:52:41 10° W 10:55:16 21° WNW 10:55:16 21° WNW visible
28 Oct 5.2 16:33:51 16° NE 16:33:51 16° NE 16:37:18 10° ENE visible
28 Oct 3.4 18:19:07 36° N 18:22:30 64° ENE 18:31:01 10° SE visible
28 Oct 3.9 20:04:23 10° NW 20:10:54 29° WSW 20:18:01 10° SSW visible
29 Oct 2.0 09:36:27 10° SW 09:41:00 69° WNW 09:43:33 30° NNE visible
29 Oct 4.5 17:07:40 29° ENE 17:07:40 29° ENE 17:14:00 10° ESE visible
29 Oct 3.0 18:52:57 41° NW 18:56:03 70° WSW 19:04:40 10° SSE visible
30 Oct 2.6 08:22:22 10° S 08:26:20 31° ESE 08:30:51 10° NE visible
30 Oct 3.7 10:10:38 10° WSW 10:14:43 28° NW 10:16:57 21° N visible
30 Oct 3.7 17:41:37 52° ENE 17:41:37 52° ENE 17:49:10 10° SE visible
30 Oct 3.7 19:26:54 30° W 19:29:22 35° WSW 19:36:58 10° S visible
31 Oct 1.8 08:54:51 10° SSW 08:59:24 89° WNW 09:04:48 10° NNE visible
31 Oct 4.6 10:46:28 10° WNW 10:48:57 13° NW 10:50:11 13° NNW visible
31 Oct 5.4 16:30:20 14° E 16:30:20 14° E 16:31:42 10° E visible
31 Oct 3.1 18:15:38 68° S 18:15:38 68° S 18:23:07 10° SSE visible
31 Oct 4.4 20:00:55 15° W 20:02:24 16° WSW 20:07:11 10° SW visible
01 Nov 3.4 09:28:42 10° WSW 09:32:58 34° NW 09:38:00 10° NNE visible
01 Nov 4.9 17:04:23 22° ESE 17:04:23 22° ESE 17:07:14 10° SE visible
01 Nov 3.7 18:49:40 38° SW 18:49:40 38° SW 18:55:48 10° S visible
